Time,TemperatureF,DewpointF,PressureIn,WindDirection,WindDirectionDegrees,WindSpeedMPH,WindSpeedGustMPH,Humidity,HourlyPrecipIn,Conditions,Clouds,dailyrainin,SoftwareType,DateUTC
2013-10-02 00:00:00,48.8,47.7,29.89,NNW,348,0.0,0.0,96,0.00,,,0.00,Wunderground v.1.15,2013-10-02 04:00:00,
2013-10-02 00:05:00,48.7,47.6,29.89,NNW,348,0.0,0.0,96,0.00,,,0.00,Wunderground v.1.15,2013-10-02 04:05:00,
2013-10-02 00:10:00,48.8,47.7,29.89,NNW,348,0.0,0.0,96,0.00,,,0.00,Wunderground v.1.15,2013-10-02 04:10:00,
2013-10-02 00:20:00,48.6,47.5,29.89,NNW,348,0.0,0.0,96,0.00,,,0.00,Wunderground v.1.15,2013-10-02 04:20:00,
2013-10-02 00:25:00,48.5,47.4,29.88,NNW,348,0.0,0.0,96,0.00,,,0.00,Wunderground v.1.15,2013-10-02 04:25:00,
2013-10-02 00:30:00,48.5,47.4,29.89,NNW,348,0.0,1.0,96,0.00,,,0.00,Wunderground v.1.15,2013-10-02 04:30:00,
2013-10-02 00:35:00,48.5,47.4,29.89,NNW,348,0.0,1.0,96,0.00,,,0.00,Wunderground v.1.15,2013-10-02 04:35:00,
2013-10-02 00:40:00,48.4,47.3,29.89,NNW,348,0.0,0.0,96,0.00,,,0.00,Wunderground v.1.15,2013-10-02 04:40:00,
2013-10-02 00:45:00,48.3,47.2,29.89,NNW,348,0.0,0.0,96,0.00,,,0.00,Wunderground v.1.15,2013-10-02 04:45:00,
2013-10-02 00:50:00,48.3,47.2,29.89,NNW,348,0.0,0.0,96,0.00,,,0.00,Wunderground v.1.15,2013-10-02 04:50:00,
2013-10-02 00:55:00,48.3,47.2,29.89,NNW,348,0.0,0.0,96,0.00,,,0.00,Wunderground v.1.15,2013-10-02 04:55:00,
2013-10-02 01:00:00,48.4,47.3,29.89,NNW,348,0.0,0.0,96,0.00,,,0.00,Wunderground v.1.15,2013-10-02 05:00:00,
2013-10-02 01:05:00,48.2,47.1,29.89,NNW,348,0.0,0.0,96,0.00,,,0.00,Wunderground v.1.15,2013-10-02 05:05:00,
2013-10-02 01:10:00,47.9,46.8,29.89,NNW,348,0.0,0.0,96,0.00,,,0.00,Wunderground v.1.15,2013-10-02 05:10:00,
2013-10-02 01:15:00,47.8,46.7,29.89,NNW,348,0.0,0.0,96,0.00,,,0.00,Wunderground v.1.15,2013-10-02 05:15:00,
2013-10-02 01:20:00,47.5,46.4,29.89,NNW,348,0.0,0.0,96,0.00,,,0.00,Wunderground v.1.15,2013-10-02 05:20:00,
2013-10-02 01:25:00,47.1,46.0,29.90,NNW,348,0.0,0.0,96,0.00,,,0.00,Wunderground v.1.15,2013-10-02 05:25:00,
2013-10-02 01:30:00,47.0,45.9,29.90,NNW,348,0.0,0.0,96,0.00,,,0.00,Wunderground v.1.15,2013-10-02 05:30:00,
2013-10-02 01:35:00,46.8,45.7,29.90,NNW,348,0.0,0.0,96,0.00,,,0.00,Wunderground v.1.15,2013-10-02 05:35:00,
2013-10-02 01:40:00,46.6,45.5,29.89,NNW,348,0.0,0.0,96,0.00,,,0.00,Wunderground v.1.15,2013-10-02 05:40:00,
2013-10-02 01:45:00,46.5,45.4,29.89,NNW,348,0.0,0.0,96,0.00,,,0.00,Wunderground v.1.15,2013-10-02 05:45:00,
2013-10-02 01:50:00,46.3,45.2,29.89,NNW,348,0.0,0.0,96,0.00,,,0.00,Wunderground v.1.15,2013-10-02 05:50:00,
2013-10-02 01:55:00,46.5,45.7,29.89,NNW,348,0.0,2.0,97,0.00,,,0.00,Wunderground v.1.15,2013-10-02 05:55:00,
2013-10-02 02:00:00,46.4,45.3,29.89,NNW,348,0.0,0.0,96,0.00,,,0.00,Wunderground v.1.15,2013-10-02 06:00:00,
2013-10-02 02:05:00,46.1,45.0,29.89,NNW,348,0.0,0.0,96,0.00,,,0.00,Wunderground v.1.15,2013-10-02 06:05:00,
2013-10-02 02:10:00,46.1,45.0,29.89,NNW,348,0.0,0.0,96,0.00,,,0.00,Wunderground v.1.15,2013-10-02 06:10:00,
2013-10-02 02:15:00,46.1,45.0,29.89,NNW,348,0.0,0.0,96,0.00,,,0.00,Wunderground v.1.15,2013-10-02 06:15:00,
2013-10-02 02:20:00,46.0,44.9,29.89,NNW,348,0.0,0.0,96,0.00,,,0.00,Wunderground v.1.15,2013-10-02 06:20:00,
2013-10-02 02:25:00,45.8,44.7,29.89,NNW,348,0.0,0.0,96,0.00,,,0.00,Wunderground v.1.15,2013-10-02 06:25:00,
2013-10-02 02:30:00,45.7,44.6,29.89,NNW,348,0.0,0.0,96,0.00,,,0.00,Wunderground v.1.15,2013-10-02 06:30:00,
2013-10-02 02:35:00,45.6,44.5,29.89,NNW,348,0.0,0.0,96,0.00,,,0.00,Wunderground v.1.15,2013-10-02 06:35:00,
2013-10-02 02:40:00,45.2,44.1,29.89,NNW,348,0.0,0.0,96,0.00,,,0.00,Wunderground v.1.15,2013-10-02 06:40:00,
2013-10-02 02:45:00,45.0,43.9,29.89,NNW,348,0.0,1.0,96,0.00,,,0.00,Wunderground v.1.15,2013-10-02 06:45:00,
2013-10-02 02:50:00,45.1,44.0,29.89,NNW,348,0.0,0.0,96,0.00,,,0.00,Wunderground v.1.15,2013-10-02 06:50:00,
2013-10-02 02:55:00,44.8,43.7,29.89,NNW,348,0.0,0.0,96,0.00,,,0.00,Wunderground v.1.15,2013-10-02 06:55:00,
2013-10-02 03:00:00,44.9,43.8,29.88,NNW,348,0.0,0.0,96,0.00,,,0.00,Wunderground v.1.15,2013-10-02 07:00:00,
2013-10-02 03:05:00,45.0,44.2,29.89,NNW,348,0.0,0.0,97,0.00,,,0.00,Wunderground v.1.15,2013-10-02 07:05:00,
2013-10-02 03:10:00,44.6,43.5,29.88,NNW,348,0.0,3.0,96,0.00,,,0.00,Wunderground v.1.15,2013-10-02 07:10:00,
2013-10-02 03:15:00,44.6,43.8,29.88,NNW,348,1.0,3.0,97,0.00,,,0.00,Wunderground v.1.15,2013-10-02 07:15:00,
2013-10-02 03:25:00,44.4,43.3,29.88,NNW,348,0.0,0.0,96,0.00,,,0.00,Wunderground v.1.15,2013-10-02 07:25:00,
2013-10-02 03:30:00,44.5,43.7,29.88,WSW,238,0.0,0.0,97,0.00,,,0.00,Wunderground v.1.15,2013-10-02 07:30:00,
2013-10-02 03:35:00,44.3,43.2,29.88,WSW,238,0.0,0.0,96,0.00,,,0.00,Wunderground v.1.15,2013-10-02 07:35:00,
2013-10-02 03:40:00,44.1,43.3,29.88,WSW,238,0.0,0.0,97,0.00,,,0.00,Wunderground v.1.15,2013-10-02 07:40:00,
2013-10-02 03:45:00,44.1,43.3,29.89,WSW,238,0.0,0.0,97,0.00,,,0.00,Wunderground v.1.15,2013-10-02 07:45:00,
2013-10-02 03:50:00,43.8,42.7,29.88,WSW,238,0.0,0.0,96,0.00,,,0.00,Wunderground v.1.15,2013-10-02 07:50:00,
2013-10-02 03:55:00,43.7,42.9,29.88,WSW,238,0.0,0.0,97,0.00,,,0.00,Wunderground v.1.15,2013-10-02 07:55:00,
2013-10-02 04:00:00,44.1,43.3,29.88,WSW,238,0.0,2.0,97,0.00,,,0.00,Wunderground v.1.15,2013-10-02 08:00:00,
2013-10-02 04:05:00,44.5,43.7,29.89,WSW,238,1.0,2.0,97,0.00,,,0.00,Wunderground v.1.15,2013-10-02 08:05:00,
2013-10-02 04:15:00,44.3,43.5,29.88,WSW,238,0.0,0.0,97,0.00,,,0.00,Wunderground v.1.15,2013-10-02 08:15:00,
2013-10-02 04:20:00,44.4,43.6,29.88,WSW,238,0.0,0.0,97,0.00,,,0.00,Wunderground v.1.15,2013-10-02 08:20:00,
2013-10-02 04:25:00,44.4,43.6,29.88,WSW,238,0.0,1.0,97,0.00,,,0.00,Wunderground v.1.15,2013-10-02 08:25:00,
2013-10-02 04:30:00,44.6,43.8,29.88,WSW,238,1.0,1.0,97,0.00,,,0.00,Wunderground v.1.15,2013-10-02 08:30:00,
2013-10-02 04:35:00,44.5,43.7,29.88,WSW,238,1.0,1.0,97,0.00,,,0.00,Wunderground v.1.15,2013-10-02 08:35:00,
2013-10-02 04:40:00,44.3,43.5,29.88,WSW,238,0.0,0.0,97,0.00,,,0.00,Wunderground v.1.15,2013-10-02 08:40:00,
2013-10-02 04:45:00,44.1,43.3,29.88,WSW,238,0.0,0.0,97,0.00,,,0.00,Wunderground v.1.15,2013-10-02 08:45:00,
2013-10-02 04:55:00,44.1,43.3,29.88,WSW,238,0.0,0.0,97,0.00,,,0.00,Wunderground v.1.15,2013-10-02 08:55:00,
2013-10-02 05:00:00,44.1,43.3,29.88,WSW,238,0.0,0.0,97,0.00,,,0.00,Wunderground v.1.15,2013-10-02 09:00:00,
2013-10-02 05:05:00,44.0,43.2,29.88,WSW,238,0.0,0.0,97,0.00,,,0.00,Wunderground v.1.15,2013-10-02 09:05:00,
2013-10-02 05:10:00,44.0,43.2,29.88,WSW,238,0.0,0.0,97,0.00,,,0.00,Wunderground v.1.15,2013-10-02 09:10:00,
2013-10-02 05:15:00,44.2,43.4,29.88,WSW,238,0.0,0.0,97,0.00,,,0.00,Wunderground v.1.15,2013-10-02 09:15:00,
2013-10-02 05:20:00,44.2,43.4,29.88,WSW,238,0.0,0.0,97,0.00,,,0.00,Wunderground v.1.15,2013-10-02 09:20:00,
2013-10-02 05:25:00,44.3,43.5,29.88,WSW,238,0.0,0.0,97,0.00,,,0.00,Wunderground v.1.15,2013-10-02 09:25:00,
2013-10-02 05:30:00,44.4,43.6,29.88,WSW,238,0.0,0.0,97,0.00,,,0.00,Wunderground v.1.15,2013-10-02 09:30:00,
2013-10-02 05:35:00,44.5,43.7,29.88,WSW,238,0.0,0.0,97,0.00,,,0.00,Wunderground v.1.15,2013-10-02 09:35:00,
2013-10-02 05:40:00,44.5,43.7,29.88,WSW,238,0.0,0.0,97,0.00,,,0.00,Wunderground v.1.15,2013-10-02 09:40:00,
2013-10-02 05:45:00,44.7,43.9,29.88,WSW,238,0.0,0.0,97,0.00,,,0.00,Wunderground v.1.15,2013-10-02 09:45:00,
2013-10-02 05:50:00,44.7,43.9,29.88,WSW,238,0.0,0.0,97,0.00,,,0.00,Wunderground v.1.15,2013-10-02 09:50:00,
2013-10-02 05:55:00,44.9,44.1,29.88,WSW,238,0.0,0.0,97,0.00,,,0.00,Wunderground v.1.15,2013-10-02 09:55:00,
2013-10-02 06:00:00,45.0,44.5,29.88,WSW,238,0.0,0.0,98,0.00,,,0.00,Wunderground v.1.15,2013-10-02 10:00:00,
2013-10-02 06:05:00,45.3,44.5,29.88,WSW,238,0.0,0.0,97,0.00,,,0.00,Wunderground v.1.15,2013-10-02 10:05:00,
2013-10-02 06:10:00,45.6,45.1,29.88,WSW,238,0.0,0.0,98,0.00,,,0.00,Wunderground v.1.15,2013-10-02 10:10:00,
2013-10-02 06:15:00,45.8,45.3,29.88,WSW,238,0.0,0.0,98,0.00,,,0.00,Wunderground v.1.15,2013-10-02 10:15:00,
2013-10-02 06:20:00,45.9,45.4,29.88,WSW,238,0.0,0.0,98,0.00,,,0.00,Wunderground v.1.15,2013-10-02 10:20:00,
2013-10-02 06:25:00,46.1,45.6,29.88,WSW,238,0.0,0.0,98,0.00,,,0.00,Wunderground v.1.15,2013-10-02 10:25:00,
2013-10-02 06:30:00,46.1,45.6,29.88,WSW,238,0.0,0.0,98,0.00,,,0.00,Wunderground v.1.15,2013-10-02 10:30:00,
2013-10-02 06:35:00,46.3,45.8,29.88,WSW,238,0.0,0.0,98,0.00,,,0.00,Wunderground v.1.15,2013-10-02 10:35:00,
2013-10-02 06:40:00,46.4,45.9,29.88,WSW,238,0.0,0.0,98,0.00,,,0.00,Wunderground v.1.15,2013-10-02 10:40:00,
2013-10-02 06:45:00,46.7,46.2,29.88,WSW,238,0.0,0.0,98,0.00,,,0.00,Wunderground v.1.15,2013-10-02 10:45:00,
2013-10-02 06:50:00,46.9,46.4,29.88,WSW,238,0.0,0.0,98,0.00,,,0.00,Wunderground v.1.15,2013-10-02 10:50:00,
2013-10-02 06:55:00,47.0,46.5,29.87,WSW,238,0.0,0.0,98,0.00,,,0.00,Wunderground v.1.15,2013-10-02 10:55:00,
2013-10-02 07:00:00,47.2,46.7,29.87,WSW,238,0.0,0.0,98,0.00,,,0.01,Wunderground v.1.15,2013-10-02 11:00:00,
2013-10-02 07:05:00,47.3,46.8,29.87,WSW,238,0.0,0.0,98,0.00,,,0.01,Wunderground v.1.15,2013-10-02 11:05:00,
2013-10-02 07:10:00,47.4,46.9,29.87,WSW,238,0.0,0.0,98,0.00,,,0.01,Wunderground v.1.15,2013-10-02 11:10:00,
2013-10-02 07:15:00,47.6,47.1,29.87,WSW,238,0.0,0.0,98,0.00,,,0.01,Wunderground v.1.15,2013-10-02 11:15:00,
2013-10-02 07:20:00,47.8,47.3,29.87,WSW,238,0.0,0.0,98,0.00,,,0.01,Wunderground v.1.15,2013-10-02 11:20:00,
2013-10-02 07:25:00,48.0,47.5,29.87,WSW,238,0.0,0.0,98,0.00,,,0.01,Wunderground v.1.15,2013-10-02 11:25:00,
2013-10-02 07:30:00,48.2,47.7,29.87,WSW,238,0.0,0.0,98,0.00,,,0.01,Wunderground v.1.15,2013-10-02 11:30:00,
2013-10-02 07:35:00,48.3,47.8,29.87,WSW,238,0.0,0.0,98,0.00,,,0.01,Wunderground v.1.15,2013-10-02 11:35:00,
2013-10-02 07:40:00,48.5,48.0,29.87,WSW,238,0.0,0.0,98,0.00,,,0.01,Wunderground v.1.15,2013-10-02 11:40:00,
2013-10-02 07:45:00,48.5,48.0,29.87,WSW,238,0.0,1.0,98,0.00,,,0.01,Wunderground v.1.15,2013-10-02 11:45:00,
2013-10-02 07:50:00,48.7,48.2,29.88,WSW,238,0.0,0.0,98,0.00,,,0.01,Wunderground v.1.15,2013-10-02 11:50:00,
2013-10-02 07:55:00,48.8,48.3,29.88,WSW,238,0.0,0.0,98,0.00,,,0.01,Wunderground v.1.15,2013-10-02 11:55:00,
2013-10-02 08:00:00,49.0,48.5,29.88,WSW,238,0.0,0.0,98,0.00,,,0.01,Wunderground v.1.15,2013-10-02 12:00:00,
2013-10-02 08:05:00,49.2,48.7,29.89,WSW,238,0.0,0.0,98,0.00,,,0.01,Wunderground v.1.15,2013-10-02 12:05:00,
2013-10-02 08:10:00,49.4,48.9,29.88,WSW,238,0.0,0.0,98,0.00,,,0.01,Wunderground v.1.15,2013-10-02 12:10:00,
2013-10-02 08:15:00,49.5,49.0,29.88,WSW,238,0.0,0.0,98,0.00,,,0.01,Wunderground v.1.15,2013-10-02 12:15:00,
2013-10-02 08:20:00,49.8,49.3,29.88,WSW,238,0.0,0.0,98,0.00,,,0.01,Wunderground v.1.15,2013-10-02 12:20:00,
2013-10-02 08:25:00,50.0,49.5,29.88,WSW,238,1.0,2.0,98,0.00,,,0.01,Wunderground v.1.15,2013-10-02 12:25:00,
2013-10-02 08:30:00,50.0,49.5,29.87,WSW,238,1.0,1.0,98,0.00,,,0.01,Wunderground v.1.15,2013-10-02 12:30:00,
2013-10-02 08:35:00,50.2,49.7,29.87,WSW,238,1.0,1.0,98,0.00,,,0.01,Wunderground v.1.15,2013-10-02 12:35:00,
2013-10-02 08:40:00,50.6,50.1,29.88,WSW,238,1.0,1.0,98,0.00,,,0.01,Wunderground v.1.15,2013-10-02 12:40:00,
2013-10-02 08:45:00,50.7,50.2,29.87,WSW,238,0.0,1.0,98,0.00,,,0.01,Wunderground v.1.15,2013-10-02 12:45:00,
2013-10-02 08:50:00,51.0,50.5,29.87,WSW,238,0.0,0.0,98,0.00,,,0.01,Wunderground v.1.15,2013-10-02 12:50:00,
2013-10-02 08:55:00,51.4,50.9,29.87,WSW,238,0.0,0.0,98,0.00,,,0.01,Wunderground v.1.15,2013-10-02 12:55:00,
2013-10-02 09:10:00,52.3,51.8,29.87,WSW,238,1.0,4.0,98,0.00,,,0.01,Wunderground v.1.15,2013-10-02 13:10:00,
2013-10-02 09:15:00,52.3,51.8,29.88,North,355,1.0,4.0,98,0.00,,,0.01,Wunderground v.1.15,2013-10-02 13:15:00,
2013-10-02 09:20:00,52.4,51.9,29.88,North,355,1.0,1.0,98,0.00,,,0.01,Wunderground v.1.15,2013-10-02 13:20:00,
2013-10-02 09:25:00,52.4,51.9,29.88,North,355,0.0,1.0,98,0.00,,,0.01,Wunderground v.1.15,2013-10-02 13:25:00,
2013-10-02 09:30:00,52.4,51.9,29.88,SSE,161,0.0,3.0,98,0.00,,,0.01,Wunderground v.1.15,2013-10-02 13:30:00,
2013-10-02 09:45:00,52.1,51.3,29.88,SSE,161,0.0,1.0,97,0.00,,,0.01,Wunderground v.1.15,2013-10-02 13:45:00,
2013-10-02 09:50:00,52.0,51.2,29.88,SSE,161,0.0,1.0,97,0.00,,,0.01,Wunderground v.1.15,2013-10-02 13:50:00,
2013-10-02 09:55:00,52.0,51.2,29.88,SSE,161,0.0,0.0,97,0.00,,,0.01,Wunderground v.1.15,2013-10-02 13:55:00,
2013-10-02 10:00:00,52.2,51.4,29.88,SSE,161,0.0,0.0,97,0.00,,,0.01,Wunderground v.1.15,2013-10-02 14:00:00,
2013-10-02 10:05:00,52.3,51.8,29.88,SSE,161,0.0,2.0,98,0.00,,,0.01,Wunderground v.1.15,2013-10-02 14:05:00,
2013-10-02 10:10:00,52.5,51.7,29.88,SSE,161,0.0,2.0,97,0.00,,,0.01,Wunderground v.1.15,2013-10-02 14:10:00,
2013-10-02 10:15:00,52.8,52.3,29.88,SSE,161,1.0,2.0,98,0.00,,,0.01,Wunderground v.1.15,2013-10-02 14:15:00,
2013-10-02 10:20:00,53.0,52.2,29.88,SSE,161,1.0,1.0,97,0.00,,,0.01,Wunderground v.1.15,2013-10-02 14:20:00,
2013-10-02 10:25:00,53.4,52.8,29.88,SSE,161,1.0,1.0,98,0.00,,,0.01,Wunderground v.1.15,2013-10-02 14:25:00,
2013-10-02 10:30:00,53.6,52.8,29.88,SSE,161,1.0,1.0,97,0.00,,,0.01,Wunderground v.1.15,2013-10-02 14:30:00,
2013-10-02 10:35:00,53.6,52.8,29.88,SSE,161,1.0,1.0,97,0.00,,,0.01,Wunderground v.1.15,2013-10-02 14:35:00,
2013-10-02 10:40:00,53.7,52.9,29.87,SSE,161,1.0,1.0,97,0.00,,,0.01,Wunderground v.1.15,2013-10-02 14:40:00,
2013-10-02 10:45:00,53.8,53.0,29.88,SSE,161,0.0,0.0,97,0.00,,,0.01,Wunderground v.1.15,2013-10-02 14:45:00,
2013-10-02 10:51:00,53.9,52.8,29.88,SSE,161,0.0,0.0,96,0.00,,,0.01,Wunderground v.1.15,2013-10-02 14:51:00,
2013-10-02 10:55:00,54.1,53.0,29.88,SSE,161,0.0,0.0,96,0.00,,,0.01,Wunderground v.1.15,2013-10-02 14:55:00,
2013-10-02 11:00:00,54.2,53.1,29.88,SSE,161,0.0,0.0,96,0.00,,,0.01,Wunderground v.1.15,2013-10-02 15:00:00,
2013-10-02 11:15:00,54.6,53.5,29.88,SSE,161,0.0,0.0,96,0.00,,,0.01,Wunderground v.1.15,2013-10-02 15:15:00,
2013-10-02 11:25:00,54.7,53.3,29.88,SSE,161,1.0,2.0,95,0.00,,,0.01,Wunderground v.1.15,2013-10-02 15:25:00,
2013-10-02 11:35:00,55.5,54.4,29.88,SSE,161,1.0,2.0,96,0.00,,,0.01,Wunderground v.1.15,2013-10-02 15:35:00,
2013-10-02 11:40:00,56.7,55.6,29.87,SSE,161,1.0,2.0,96,0.00,,,0.01,Wunderground v.1.15,2013-10-02 15:40:00,
2013-10-02 11:45:00,58.2,56.5,29.87,SSW,205,2.0,6.0,94,0.00,,,0.01,Wunderground v.1.15,2013-10-02 15:45:00,
2013-10-02 11:55:00,64.0,59.7,29.86,West,271,7.0,9.0,86,0.00,,,0.01,Wunderground v.1.15,2013-10-02 15:55:00,
2013-10-02 12:00:00,65.6,60.0,29.86,WSW,251,7.0,7.0,82,0.00,,,0.01,Wunderground v.1.15,2013-10-02 16:00:00,
2013-10-02 12:05:00,66.5,60.5,29.85,SSW,210,8.0,8.0,81,0.00,,,0.01,Wunderground v.1.15,2013-10-02 16:05:00,
2013-10-02 12:11:00,67.2,60.1,29.85,South,188,6.0,6.0,78,0.00,,,0.01,Wunderground v.1.15,2013-10-02 16:11:00,
2013-10-02 12:15:00,67.6,60.5,29.85,WSW,257,5.0,6.0,78,0.00,,,0.01,Wunderground v.1.15,2013-10-02 16:15:00,
2013-10-02 12:20:00,68.3,60.4,29.85,SW,229,5.0,9.0,76,0.00,,,0.01,Wunderground v.1.15,2013-10-02 16:20:00,
2013-10-02 12:25:00,68.6,61.5,29.85,WSW,239,4.0,4.0,78,0.00,,,0.01,Wunderground v.1.15,2013-10-02 16:25:00,
2013-10-02 12:30:00,68.5,59.9,29.85,West,266,6.0,6.0,74,0.00,,,0.01,Wunderground v.1.15,2013-10-02 16:30:00,
2013-10-02 12:35:00,68.6,60.0,29.85,SSW,205,7.0,8.0,74,0.00,,,0.01,Wunderground v.1.15,2013-10-02 16:35:00,
2013-10-02 12:40:00,68.7,60.1,29.85,SW,217,7.0,8.0,74,0.00,,,0.01,Wunderground v.1.15,2013-10-02 16:40:00,
2013-10-02 12:45:00,68.5,59.9,29.84,NW,324,9.0,9.0,74,0.00,,,0.01,Wunderground v.1.15,2013-10-02 16:45:00,
2013-10-02 12:50:00,68.7,60.5,29.84,WSW,256,7.0,9.0,75,0.00,,,0.01,Wunderground v.1.15,2013-10-02 16:50:00,
2013-10-02 12:55:00,68.8,60.2,29.85,WSW,254,8.0,13.0,74,0.00,,,0.01,Wunderground v.1.15,2013-10-02 16:55:00,
2013-10-02 13:05:00,69.7,59.9,29.84,West,259,7.0,7.0,71,0.00,,,0.01,Wunderground v.1.15,2013-10-02 17:05:00,
2013-10-02 13:10:00,69.7,59.9,29.83,WNW,291,7.0,10.0,71,0.00,,,0.01,Wunderground v.1.15,2013-10-02 17:10:00,
2013-10-02 13:15:00,70.1,60.3,29.83,West,267,6.0,13.0,71,0.00,,,0.01,Wunderground v.1.15,2013-10-02 17:15:00,
2013-10-02 13:25:00,70.1,60.3,29.83,SSW,209,7.0,7.0,71,0.00,,,0.01,Wunderground v.1.15,2013-10-02 17:25:00,
2013-10-02 13:30:00,69.7,59.9,29.83,WSW,240,6.0,7.0,71,0.00,,,0.01,Wunderground v.1.15,2013-10-02 17:30:00,
2013-10-02 13:40:00,68.5,59.5,29.83,WNW,286,5.0,5.0,73,0.00,,,0.01,Wunderground v.1.15,2013-10-02 17:40:00,
2013-10-02 13:50:00,69.4,60.4,29.82,WSW,242,6.0,7.0,73,0.00,,,0.01,Wunderground v.1.15,2013-10-02 17:50:00,
2013-10-02 13:55:00,70.0,60.9,29.82,WSW,254,6.0,7.0,73,0.00,,,0.01,Wunderground v.1.15,2013-10-02 17:55:00,
2013-10-02 14:00:00,70.3,60.4,29.82,West,268,6.0,6.0,71,0.00,,,0.01,Wunderground v.1.15,2013-10-02 18:00:00,
2013-10-02 14:05:00,69.9,59.3,29.82,WSW,250,7.0,7.0,69,0.00,,,0.01,Wunderground v.1.15,2013-10-02 18:05:00,
2013-10-02 14:10:00,69.3,59.1,29.82,WSW,239,7.0,7.0,70,0.00,,,0.01,Wunderground v.1.15,2013-10-02 18:10:00,
2013-10-02 14:15:00,68.9,59.1,29.82,West,270,7.0,10.0,71,0.00,,,0.01,Wunderground v.1.15,2013-10-02 18:15:00,
2013-10-02 14:25:00,68.7,59.3,29.82,SW,225,4.0,4.0,72,0.00,,,0.01,Wunderground v.1.15,2013-10-02 18:25:00,
2013-10-02 14:30:00,68.7,59.7,29.82,WSW,239,3.0,4.0,73,0.00,,,0.01,Wunderground v.1.15,2013-10-02 18:30:00,
2013-10-02 14:35:00,68.7,58.9,29.82,SW,225,4.0,4.0,71,0.00,,,0.01,Wunderground v.1.15,2013-10-02 18:35:00,
2013-10-02 14:40:00,68.5,59.5,29.82,WSW,240,4.0,4.0,73,0.00,,,0.01,Wunderground v.1.15,2013-10-02 18:40:00,
2013-10-02 14:50:00,68.3,59.7,29.82,SSW,196,3.0,6.0,74,0.00,,,0.01,Wunderground v.1.15,2013-10-02 18:50:00,
2013-10-02 14:55:00,68.1,59.5,29.82,WSW,250,4.0,6.0,74,0.00,,,0.01,Wunderground v.1.15,2013-10-02 18:55:00,
2013-10-02 15:00:00,68.0,59.4,29.82,WSW,254,4.0,4.0,74,0.00,,,0.01,Wunderground v.1.15,2013-10-02 19:00:00,
2013-10-02 15:05:00,68.1,59.5,29.82,WSW,256,4.0,4.0,74,0.00,,,0.01,Wunderground v.1.15,2013-10-02 19:05:00,
2013-10-02 15:10:00,69.1,60.5,29.82,WSW,248,5.0,7.0,74,0.00,,,0.01,Wunderground v.1.15,2013-10-02 19:10:00,
2013-10-02 15:25:00,71.0,59.9,29.81,South,189,6.0,6.0,68,0.00,,,0.01,Wunderground v.1.15,2013-10-02 19:25:00,
2013-10-02 15:30:00,71.4,59.4,29.81,West,260,6.0,6.0,66,0.00,,,0.01,Wunderground v.1.15,2013-10-02 19:30:00,
2013-10-02 15:35:00,71.3,58.1,29.82,WSW,239,5.0,5.0,63,0.00,,,0.01,Wunderground v.1.15,2013-10-02 19:35:00,
2013-10-02 15:40:00,71.8,58.1,29.82,WSW,248,4.0,10.0,62,0.00,,,0.01,Wunderground v.1.15,2013-10-02 19:40:00,
2013-10-02 15:45:00,71.9,57.7,29.81,SW,219,6.0,9.0,61,0.00,,,0.01,Wunderground v.1.15,2013-10-02 19:45:00,
2013-10-02 15:51:00,71.7,57.5,29.82,WSW,242,7.0,10.0,61,0.00,,,0.01,Wunderground v.1.15,2013-10-02 19:51:00,
2013-10-02 15:55:00,71.4,57.7,29.82,WSW,248,6.0,6.0,62,0.00,,,0.01,Wunderground v.1.15,2013-10-02 19:55:00,
2013-10-02 16:00:00,71.5,57.8,29.82,SSW,209,6.0,7.0,62,0.00,,,0.01,Wunderground v.1.15,2013-10-02 20:00:00,
2013-10-02 16:05:00,71.8,57.2,29.82,SW,217,7.0,12.0,60,0.00,,,0.01,Wunderground v.1.15,2013-10-02 20:05:00,
2013-10-02 16:10:00,71.9,58.2,29.82,SW,227,8.0,8.0,62,0.00,,,0.01,Wunderground v.1.15,2013-10-02 20:10:00,
2013-10-02 16:15:00,72.1,57.9,29.82,WSW,246,7.0,8.0,61,0.00,,,0.01,Wunderground v.1.15,2013-10-02 20:15:00,
2013-10-02 16:20:00,72.2,57.5,29.81,West,269,7.0,7.0,60,0.00,,,0.01,Wunderground v.1.15,2013-10-02 20:20:00,
2013-10-02 16:25:00,72.3,57.6,29.82,SW,222,8.0,8.0,60,0.00,,,0.01,Wunderground v.1.15,2013-10-02 20:25:00,
2013-10-02 16:30:00,72.6,57.0,29.82,West,259,6.0,6.0,58,0.00,,,0.01,Wunderground v.1.15,2013-10-02 20:30:00,
2013-10-02 16:35:00,72.6,56.5,29.82,West,265,5.0,6.0,57,0.00,,,0.01,Wunderground v.1.15,2013-10-02 20:35:00,
2013-10-02 16:45:00,71.9,55.3,29.82,South,185,5.0,5.0,56,0.00,,,0.01,Wunderground v.1.15,2013-10-02 20:45:00,
2013-10-02 16:50:00,71.2,55.2,29.82,WSW,239,6.0,9.0,57,0.00,,,0.01,Wunderground v.1.15,2013-10-02 20:50:00,
2013-10-02 16:55:00,70.8,54.8,29.82,WSW,239,7.0,9.0,57,0.00,,,0.01,Wunderground v.1.15,2013-10-02 20:55:00,
2013-10-02 17:00:00,70.8,54.8,29.82,West,260,7.0,7.0,57,0.00,,,0.01,Wunderground v.1.15,2013-10-02 21:00:00,
2013-10-02 17:05:00,70.8,54.8,29.83,West,270,7.0,7.0,57,0.00,,,0.01,Wunderground v.1.15,2013-10-02 21:05:00,
2013-10-02 17:10:00,70.9,54.9,29.83,WSW,253,6.0,6.0,57,0.00,,,0.01,Wunderground v.1.15,2013-10-02 21:10:00,
2013-10-02 17:15:00,70.9,53.9,29.82,WSW,248,6.0,9.0,55,0.00,,,0.01,Wunderground v.1.15,2013-10-02 21:15:00,
2013-10-02 17:20:00,70.7,53.7,29.83,West,277,7.0,9.0,55,0.00,,,0.01,Wunderground v.1.15,2013-10-02 21:20:00,
2013-10-02 17:30:00,70.5,52.5,29.83,SW,219,6.0,12.0,53,0.00,,,0.01,Wunderground v.1.15,2013-10-02 21:30:00,
2013-10-02 17:35:00,70.3,51.8,29.83,WSW,242,6.0,12.0,52,0.00,,,0.01,Wunderground v.1.15,2013-10-02 21:35:00,
2013-10-02 17:40:00,70.1,52.2,29.83,SSW,211,5.0,5.0,53,0.00,,,0.01,Wunderground v.1.15,2013-10-02 21:40:00,
2013-10-02 17:45:00,69.9,52.0,29.83,WSW,245,4.0,7.0,53,0.00,,,0.01,Wunderground v.1.15,2013-10-02 21:45:00,
2013-10-02 17:50:00,69.6,52.2,29.83,West,259,4.0,4.0,54,0.00,,,0.01,Wunderground v.1.15,2013-10-02 21:50:00,
2013-10-02 17:55:00,69.1,52.7,29.83,SW,236,3.0,4.0,56,0.00,,,0.01,Wunderground v.1.15,2013-10-02 21:55:00,
2013-10-02 18:00:00,68.1,51.8,29.84,West,267,2.0,3.0,56,0.00,,,0.01,Wunderground v.1.15,2013-10-02 22:00:00,
2013-10-02 18:05:00,67.3,52.5,29.84,WSW,242,2.0,3.0,59,0.00,,,0.01,Wunderground v.1.15,2013-10-02 22:05:00,
2013-10-02 18:10:00,66.5,52.6,29.84,SW,220,2.0,2.0,61,0.00,,,0.01,Wunderground v.1.15,2013-10-02 22:10:00,
2013-10-02 18:15:00,65.4,53.7,29.84,SW,220,2.0,2.0,66,0.00,,,0.01,Wunderground v.1.15,2013-10-02 22:15:00,
2013-10-02 18:20:00,64.0,52.8,29.85,WSW,250,2.0,3.0,67,0.00,,,0.01,Wunderground v.1.15,2013-10-02 22:20:00,
2013-10-02 18:25:00,63.3,52.2,29.85,West,269,2.0,3.0,67,0.00,,,0.01,Wunderground v.1.15,2013-10-02 22:25:00,
2013-10-02 18:30:00,62.6,52.7,29.85,SW,234,2.0,2.0,70,0.00,,,0.01,Wunderground v.1.15,2013-10-02 22:30:00,
2013-10-02 18:35:00,61.8,51.1,29.85,SW,234,2.0,2.0,68,0.00,,,0.01,Wunderground v.1.15,2013-10-02 22:35:00,
2013-10-02 18:40:00,61.4,51.9,29.86,SW,234,2.0,2.0,71,0.00,,,0.01,Wunderground v.1.15,2013-10-02 22:40:00,
2013-10-02 18:45:00,60.6,51.9,29.86,SW,234,1.0,2.0,73,0.00,,,0.01,Wunderground v.1.15,2013-10-02 22:45:00,
2013-10-02 18:50:00,59.9,52.0,29.86,SW,234,1.0,1.0,75,0.00,,,0.01,Wunderground v.1.15,2013-10-02 22:50:00,
2013-10-02 18:55:00,59.1,51.5,29.86,SW,234,1.0,1.0,76,0.00,,,0.01,Wunderground v.1.15,2013-10-02 22:55:00,
2013-10-02 19:00:00,58.4,51.9,29.86,SW,234,1.0,2.0,79,0.00,,,0.01,Wunderground v.1.15,2013-10-02 23:00:00,
2013-10-02 19:05:00,57.6,50.8,29.87,SW,234,1.0,2.0,78,0.00,,,0.01,Wunderground v.1.15,2013-10-02 23:05:00,
2013-10-02 19:10:00,57.1,50.6,29.87,SW,234,1.0,1.0,79,0.00,,,0.01,Wunderground v.1.15,2013-10-02 23:10:00,
2013-10-02 19:15:00,56.6,50.5,29.87,SW,234,1.0,3.0,80,0.00,,,0.01,Wunderground v.1.15,2013-10-02 23:15:00,
2013-10-02 19:20:00,56.4,50.3,29.87,SW,234,1.0,1.0,80,0.00,,,0.01,Wunderground v.1.15,2013-10-02 23:20:00,
2013-10-02 19:30:00,55.8,50.1,29.87,SW,234,1.0,1.0,81,0.00,,,0.01,Wunderground v.1.15,2013-10-02 23:30:00,
2013-10-02 19:35:00,55.4,49.7,29.87,SW,234,1.0,1.0,81,0.00,,,0.01,Wunderground v.1.15,2013-10-02 23:35:00,
2013-10-02 19:40:00,54.9,49.5,29.87,SW,234,1.0,1.0,82,0.00,,,0.01,Wunderground v.1.15,2013-10-02 23:40:00,
2013-10-02 19:45:00,54.6,49.9,29.88,SW,234,1.0,3.0,84,0.00,,,0.01,Wunderground v.1.15,2013-10-02 23:45:00,
2013-10-02 19:50:00,54.5,49.8,29.88,SW,234,2.0,2.0,84,0.00,,,0.01,Wunderground v.1.15,2013-10-02 23:50:00,
2013-10-02 19:55:00,54.3,49.2,29.88,West,268,2.0,2.0,83,0.00,,,0.01,Wunderground v.1.15,2013-10-02 23:55:00,
2013-10-02 20:00:00,55.0,48.6,29.88,SW,222,1.0,2.0,79,0.00,,,0.01,Wunderground v.1.15,2013-10-03 00:00:00,
2013-10-02 20:05:00,56.4,48.9,29.89,WSW,248,2.0,2.0,76,0.00,,,0.01,Wunderground v.1.15,2013-10-03 00:05:00,
2013-10-02 20:10:00,56.9,49.4,29.89,WSW,248,1.0,1.0,76,0.00,,,0.01,Wunderground v.1.15,2013-10-03 00:10:00,
2013-10-02 20:15:00,56.8,49.7,29.89,SW,221,1.0,1.0,77,0.00,,,0.01,Wunderground v.1.15,2013-10-03 00:15:00,
2013-10-02 20:20:00,56.1,49.3,29.89,SW,221,1.0,1.0,78,0.00,,,0.01,Wunderground v.1.15,2013-10-03 00:20:00,
2013-10-02 20:25:00,55.6,49.5,29.89,SW,221,1.0,1.0,80,0.00,,,0.01,Wunderground v.1.15,2013-10-03 00:25:00,
2013-10-02 20:30:00,55.1,49.0,29.89,SW,221,1.0,1.0,80,0.00,,,0.01,Wunderground v.1.15,2013-10-03 00:30:00,
2013-10-02 20:35:00,54.6,48.9,29.89,SW,221,1.0,1.0,81,0.00,,,0.01,Wunderground v.1.15,2013-10-03 00:35:00,
2013-10-02 20:40:00,54.1,48.4,29.89,SW,221,1.0,1.0,81,0.00,,,0.01,Wunderground v.1.15,2013-10-03 00:40:00,
2013-10-02 20:45:00,53.7,48.3,29.89,SW,221,0.0,2.0,82,0.00,,,0.01,Wunderground v.1.15,2013-10-03 00:45:00,
2013-10-02 20:50:00,53.3,48.3,29.89,SW,221,1.0,1.0,83,0.00,,,0.01,Wunderground v.1.15,2013-10-03 00:50:00,
2013-10-02 20:55:00,53.0,48.0,29.89,SW,221,1.0,2.0,83,0.00,,,0.01,Wunderground v.1.15,2013-10-03 00:55:00,
2013-10-02 21:05:00,52.9,48.2,29.90,WSW,246,2.0,4.0,84,0.00,,,0.01,Wunderground v.1.15,2013-10-03 01:05:00,
2013-10-02 21:10:00,53.3,48.6,29.90,WNW,285,2.0,2.0,84,0.00,,,0.01,Wunderground v.1.15,2013-10-03 01:10:00,
2013-10-02 21:20:00,55.4,48.7,29.90,West,275,3.0,3.0,78,0.00,,,0.01,Wunderground v.1.15,2013-10-03 01:20:00,
2013-10-02 21:25:00,57.0,49.2,29.90,SSW,211,4.0,4.0,75,0.00,,,0.01,Wunderground v.1.15,2013-10-03 01:25:00,
2013-10-02 21:31:00,58.5,49.1,29.90,SW,231,4.0,4.0,71,0.00,,,0.01,Wunderground v.1.15,2013-10-03 01:31:00,
2013-10-02 21:55:00,59.1,48.9,29.92,East,90,1.0,1.0,69,0.00,,,0.01,Wunderground v.1.15,2013-10-03 01:55:00,
2013-10-02 22:00:00,57.6,48.6,29.92,East,90,1.0,1.0,72,0.00,,,0.01,Wunderground v.1.15,2013-10-03 02:00:00,
2013-10-02 22:05:00,56.4,47.9,29.92,East,90,1.0,1.0,73,0.00,,,0.01,Wunderground v.1.15,2013-10-03 02:05:00,
2013-10-02 22:10:00,55.6,47.8,29.93,East,90,1.0,1.0,75,0.00,,,0.01,Wunderground v.1.15,2013-10-03 02:10:00,
2013-10-02 22:15:00,54.9,47.5,29.93,East,90,1.0,1.0,76,0.00,,,0.01,Wunderground v.1.15,2013-10-03 02:15:00,
2013-10-02 22:25:00,53.7,47.3,29.93,West,267,1.0,1.0,79,0.00,,,0.01,Wunderground v.1.15,2013-10-03 02:25:00,
2013-10-02 22:35:00,52.3,46.6,29.93,West,267,0.0,0.0,81,0.00,,,0.01,Wunderground v.1.15,2013-10-03 02:35:00,
2013-10-02 22:40:00,51.6,46.3,29.93,West,267,0.0,0.0,82,0.00,,,0.01,Wunderground v.1.15,2013-10-03 02:40:00,
2013-10-02 22:45:00,51.0,46.0,29.94,West,267,0.0,0.0,83,0.00,,,0.01,Wunderground v.1.15,2013-10-03 02:45:00,
2013-10-02 22:50:00,50.5,45.8,29.94,West,267,0.0,0.0,84,0.00,,,0.01,Wunderground v.1.15,2013-10-03 02:50:00,
2013-10-02 22:55:00,50.0,45.7,29.94,West,267,0.0,0.0,85,0.00,,,0.01,Wunderground v.1.15,2013-10-03 02:55:00,
2013-10-02 23:05:00,49.4,45.7,29.94,West,267,0.0,1.0,87,0.00,,,0.01,Wunderground v.1.15,2013-10-03 03:05:00,
2013-10-02 23:10:00,49.2,45.8,29.94,West,267,0.0,0.0,88,0.00,,,0.01,Wunderground v.1.15,2013-10-03 03:10:00,
2013-10-02 23:15:00,49.0,45.9,29.94,West,267,0.0,0.0,89,0.00,,,0.01,Wunderground v.1.15,2013-10-03 03:15:00,
2013-10-02 23:20:00,48.5,45.1,29.95,West,267,1.0,1.0,88,0.00,,,0.01,Wunderground v.1.15,2013-10-03 03:20:00,
2013-10-02 23:25:00,48.3,45.2,29.95,WSW,239,1.0,2.0,89,0.00,,,0.01,Wunderground v.1.15,2013-10-03 03:25:00,
2013-10-02 23:30:00,48.2,45.4,29.95,WSW,239,1.0,1.0,90,0.00,,,0.01,Wunderground v.1.15,2013-10-03 03:30:00,
2013-10-02 23:35:00,48.2,45.4,29.95,WSW,239,1.0,1.0,90,0.00,,,0.01,Wunderground v.1.15,2013-10-03 03:35:00,
2013-10-02 23:40:00,48.1,45.3,29.96,WSW,239,1.0,2.0,90,0.00,,,0.01,Wunderground v.1.15,2013-10-03 03:40:00,
2013-10-02 23:45:00,47.9,45.1,29.96,WSW,239,1.0,2.0,90,0.00,,,0.01,Wunderground v.1.15,2013-10-03 03:45:00,
2013-10-02 23:50:00,47.8,45.3,29.96,WSW,239,1.0,1.0,91,0.00,,,0.01,Wunderground v.1.15,2013-10-03 03:50:00,